Location: Ethel Rock
(53.4667°N, 4.5667°W)
Time: 01:02:34
(UTC+00:00)

SL-16 R/B - Pass Details

Date: 24 October 2020
Orbit: 843 x 847 km, 71.0° (Epoch: 26 November)

Event Time Altitude Azimuth Distance (km) Brightness Sun altitude
Exits shadow 03:55:27 23° 339° (NNW) 1,732 3.8 -28.2°
Drops below altitude 10° 03:59:15 10° 20° (NNE) 2,477 5.1 -27.6°
Sets 04:02:13 0° 35° (NE) 3,414 6.1 -27.2°
